Update:Debris from the YAOGAN 1 module re-entered the Earths atmosphere on the 4th August, 2012 @ 21:20 GMT ± 42 minutes.
Inclination: 97.87°Revolution Number: 13658Predicted Location: 4.3°N, 41.5°W
Update:Debris from the YAOGAN 1 module is predicted to re-enter the Earths atmosphere on the 4th August, 2012 @ 21:20 GMT ± 1 hour.
YAOGAN 1 DEB 1 36363U 06015G 12217.82532854 .52114705 27459-5 69544-2 0 1082 2 36363 097.8676 232.9818 0017371 256.1216 105.6755 16.34993232136787
Period: - minutesInclination: 97.87°Apogee: - kmPerigee: - km Revolution Number: 13658Predicted Location: 4.3°N, 41.5°W
Update:Debris from the YAOGAN 1 module is predicted to re-enter the Earths atmosphere on the 4th August, 2012 @ 21:16 GMT ± 2 hours.
YAOGAN 1 DEB 1 36363U 06015G 12217.64043581 .19119982 26758-5 97708-2 0 1074 2 36363 097.8630 232.7636 0020286 243.7918 116.2579 16.19979070136759
Period: 90.19 minutesInclination: 97.86°Apogee: 295 kmPerigee: 273 km Revolution Number: 13657Predicted Location: 12.4°S, 37.2°W
Update:Debris from the YAOGAN 1 module is predicted to re-enter the Earths atmosphere on the 4th August, 2012 @ 21:30 GMT ± 8 hours.
YAOGAN 1 DEB 1 36363U 06015G 12217.57858848 .15858140 26660-5 99214-2 0 1063 2 36363 097.8630 232.6890 0020819 244.0387 115.8213 16.17284538136741
Period: 90.19 minutesInclination: 97.86°Apogee: 295 kmPerigee: 273 km Revolution Number: 13659Predicted Location: 43.7°N, 117.3°E
Update:Debris from the YAOGAN 1 module is predicted to re-enter the Earths atmosphere on the 15th August, 2012 @ --:-- GMT ± -- hours.
YAOGAN 1 DEB 1 36363U 06015G 12217.26829124 .06299407 15572+0 11738-1 0 1034 2 36363 097.8709 232.3259 0018876 239.5926 119.9655 16.08964280136690
Period: 90.62 minutesInclination: 97.87°Apogee: 313 kmPerigee: 296 km Revolution Number: 13678Predicted Location: -
Debris from the YAOGAN 1 module that was launched on the 26th April, 2006, from the Taiyuan Satellite Launch Centre is predicted to re-enter the Earths atmosphere on the 17th August, 2012 @ --:-- GMT ± -- hours.
YAOGAN 1 DEB 1 36363U 06015G 12214.37916621 .02410645 00000-0 92995-2 0 920 2 36363 097.8753 228.9723 0009706 230.3315 129.6708 15.84223792136235
Period: 91.29 minutesInclination: 97.88°Apogee: 343 kmPerigee: 333 km Revolution Number: 13676Predicted Location: -